FW1021 Weather Reports


Display with metric or nautical units.
time (UTC)temp
F
wind
direction
speed
MPH
gust
MPH
rain 1hr
in
rain 24hr
in
rain mn
in
humidity
%
barometer
mb
20200403085544 55 261 2.0 8.0 0.02 0.02 0.02 85 1013.6
20200403085045 56 277 2.0 7.0 0.00 0.00 0.00 83 1013.6
20200403084612 57 116 0.0 6.0 0.00 0.00 0.00 80 1013.1
20200403084041 57 130 2.0 6.0 0.00 0.00 0.00 80 1012.9
20200403083605 58 140 1.0 4.0 0.00 0.00 0.00 78 1013.0
20200403083108 59 134 1.0 2.0 0.00 0.00 0.00 72 1013.1
20200403082558 59 0 0.0 3.0 0.00 0.00 0.00 70 1013.0
20200403082044 59 134 0.0 3.0 0.00 0.00 0.00 71 1013.0
20200403081639 59 134 0.0 3.0 0.00 0.00 0.00 73 1012.9
20200403081048 59 0 1.0 3.0 0.00 0.00 0.00 72 1012.7
20200403080545 59 0 0.0 2.0 0.00 0.00 0.00 73 1012.8
20200403080119 59 0 0.0 2.0 0.00 0.00 0.00 74 1012.7
20200403075540 59 134 0.0 2.0 0.00 0.00 0.00 73 1012.5
20200403075041 59 134 0.0 2.0 0.00 0.00 0.00 73 1012.4
20200403074549 59 134 0.0 3.0 0.00 0.00 0.00 73 1012.6
20200403074102 59 134 1.0 3.0 0.00 0.00 0.00 72 1012.6
20200403073544 59 134 1.0 2.0 0.00 0.00 0.00 72 1012.7
20200403073153 59 134 0.0 2.0 0.00 0.00 0.00 71 1012.9
20200403072543 59 0 0.0 2.0 0.00 0.00 0.00 72 1012.9
20200403072105 58 0 0.0 2.0 0.00 0.00 0.00 71 1012.9
20200403071624 59 0 0.0 2.0 0.00 0.00 0.00 70 1013.0
20200403071046 59 134 1.0 2.0 0.00 0.00 0.00 70 1012.7
20200403070543 59 134 1.0 3.0 0.00 0.00 0.00 69 1012.8
20200403070212 59 134 1.0 3.0 0.00 0.00 0.00 70 1013.0
20200403065541 59 0 0.0 0.0 0.00 0.00 0.00 69 1013.0
20200403065100 59 0 0.0 0.0 0.00 0.00 0.00 69 1012.9
20200403064552 59 0 0.0 0.0 0.00 0.00 0.00 69 1013.0
20200403064043 59 0 0.0 0.0 0.00 0.00 0.00 69 1013.0
20200403063544 59 0 0.0 0.0 0.00 0.00 0.00 69 1013.1
20200403063105 59 0 0.0 1.0 0.00 0.00 0.00 68 1013.1
20200403062543 59 0 0.0 2.0 0.00 0.00 0.00 67 1013.1
20200403062044 59 0 0.0 2.0 0.00 0.00 0.00 67 1013.2
20200403061602 59 134 0.0 0.0 0.00 0.00 0.00 68 1013.1
20200403061043 59 0 0.0 0.0 0.00 0.00 0.00 65 1013.3
20200403060541 60 0 0.0 0.0 0.00 0.00 0.00 67 1013.3
20200403060135 59 0 0.0 0.0 0.00 0.00 0.00 66 1013.3
20200403055550 60 0 0.0 0.0 0.00 0.00 0.00 67 1013.4
20200403055044 60 0 0.0 0.0 0.00 0.00 0.00 66 1013.3
20200403054618 60 0 0.0 0.0 0.00 0.00 0.00 66 1013.4
20200403054109 60 0 0.0 0.0 0.00 0.00 0.00 65 1013.4
20200403053557 60 0 0.0 0.0 0.00 0.00 0.00 64 1013.4
20200403053150 60 0 0.0 0.0 0.00 0.00 0.00 64 1013.4
20200403052543 60 0 0.0 0.0 0.00 0.00 0.00 65 1013.4
20200403052052 60 0 0.0 2.0 0.00 0.00 0.00 64 1013.4
20200403051635 60 0 0.0 2.0 0.00 0.00 0.00 63 1013.4
20200403051046 60 0 0.0 1.0 0.00 0.00 0.00 64 1013.4
20200403050543 60 0 0.0 1.0 0.00 0.00 0.00 62 1013.4
20200403050214 60 0 0.0 3.0 0.00 0.00 0.00 62 1013.3
20200403045540 60 0 0.0 3.0 0.00 0.00 0.00 64 1013.3
20200403045049 60 134 0.0 4.0 0.00 0.00 0.00 62 1013.3
20200403044614 60 0 1.0 4.0 0.00 0.00 0.00 63 1013.3
20200403044048 60 136 1.0 3.0 0.00 0.00 0.00 63 1013.2
20200403043542 60 136 1.0 3.0 0.00 0.00 0.00 61 1013.3
20200403043229 60 136 0.0 2.0 0.00 0.00 0.00 62 1013.3
20200403042555 60 0 0.0 2.0 0.00 0.00 0.00 62 1013.3
20200403042059 60 0 0.0 2.0 0.00 0.00 0.00 62 1013.3
20200403041559 60 0 0.0 2.0 0.00 0.00 0.00 61 1013.2
20200403041041 60 136 0.0 3.0 0.00 0.00 0.00 62 1013.2
20200403040541 60 0 1.0 3.0 0.00 0.00 0.00 61 1013.1
20200403040151 60 135 1.0 3.0 0.00 0.00 0.00 60 1013.2
20200403035542 60 135 0.0 2.0 0.00 0.00 0.00 60 1013.1
20200403035044 60 0 0.0 4.0 0.00 0.00 0.00 60 1013.1
20200403034556 60 135 1.0 5.0 0.00 0.00 0.00 61 1013.1
20200403034100 60 146 1.0 5.0 0.00 0.00 0.00 59 1012.9
20200403033548 60 131 1.0 4.0 0.00 0.00 0.00 59 1012.9
20200403033120 60 0 1.0 5.0 0.00 0.00 0.00 60 1012.8
20200403032555 60 155 1.0 6.0 0.00 0.00 0.00 59 1012.8
20200403032047 61 144 2.0 6.0 0.00 0.00 0.00 59 1012.7
20200403031647 61 0 2.0 5.0 0.00 0.00 0.00 59 1012.7
20200403031040 61 172 1.0 6.0 0.00 0.00 0.00 57 1012.7
20200403030600 61 146 1.0 6.0 0.00 0.00 0.00 57 1012.6
20200403030058 61 143 1.0 6.0 0.00 0.00 0.00 56 1012.7
20200403025557 61 133 1.0 6.0 0.00 0.00 0.00 57 1012.6
20200403025051 62 159 2.0 6.0 0.00 0.00 0.00 56 1012.7
20200403024639 61 186 2.0 6.0 0.00 0.00 0.00 57 1012.7
20200403024047 61 173 1.0 8.0 0.00 0.00 0.00 57 1012.5
20200403023544 62 0 3.0 8.0 0.00 0.00 0.00 56 1012.5
20200403023111 62 103 1.0 8.0 0.00 0.00 0.00 57 1012.5
20200403022543 62 130 2.0 7.0 0.00 0.00 0.00 57 1012.4
20200403022045 61 132 3.0 7.0 0.00 0.00 0.00 58 1012.3
20200403021659 61 129 1.0 3.0 0.00 0.00 0.00 59 1012.2
20200403021046 62 119 1.0 3.0 0.00 0.00 0.00 58 1012.1
20200403020543 62 123 1.0 4.0 0.00 0.00 0.00 58 1012.0
20200403020108 62 120 2.0 4.0 0.00 0.00 0.00 58 1011.9
20200403015543 62 102 2.0 4.0 0.00 0.00 0.00 58 1011.8
20200403015045 62 120 1.0 8.0 0.00 0.00 0.00 57 1011.6
20200403014628 62 119 1.0 8.0 0.00 0.00 0.00 57 1011.5
20200403014117 62 103 1.0 4.0 0.00 0.00 0.00 57 1011.5
20200403013553 63 121 1.0 8.0 0.00 0.00 0.00 56 1011.6
20200403013110 63 117 1.0 8.0 0.00 0.00 0.00 56 1011.4
20200403012600 63 110 2.0 11.0 0.00 0.00 0.00 56 1011.3
20200403012044 63 116 4.0 11.0 0.00 0.00 0.00 54 1011.3
20200403011611 63 130 5.0 15.0 0.00 0.00 0.00 55 1011.3
20200403011042 64 147 4.0 15.0 0.00 0.00 0.00 55 1011.2
20200403010545 64 110 3.0 12.0 0.00 0.00 0.00 56 1011.1
20200403010145 64 159 5.0 12.0 0.00 0.00 0.00 55 1011.0
20200403005549 64 111 3.0 9.0 0.00 0.00 0.00 57 1011.0
20200403005050 64 128 3.0 8.0 0.00 0.00 0.00 57 1011.1
20200403004552 64 109 2.0 9.0 0.00 0.00 0.00 59 1011.0
20200403004057 65 107 3.0 9.0 0.00 0.00 0.00 56 1010.8
20200403003547 65 113 4.0 9.0 0.00 0.00 0.00 55 1010.8
20200403003114 66 130 3.0 13.0 0.00 0.00 0.00 54 1010.9
20200403002601 66 121 4.0 13.0 0.00 0.00 0.00 52 1010.8
20200403002042 67 129 4.0 12.0 0.00 0.00 0.00 53 1010.9
20200403001613 67 90 4.0 13.0 0.00 0.00 0.00 51 1010.7
20200403001051 67 107 4.0 13.0 0.00 0.00 0.00 51 1010.8
20200403000554 68 130 4.0 11.0 0.00 0.00 0.00 51 1010.8
20200403000200 69 125 5.0 13.0 0.00 0.00 0.00 49 1010.8
20200402235601 70 136 4.0 14.0 0.00 0.00 0.00 48 1010.8
20200402235042 70 140 4.0 18.0 0.00 0.00 0.00 48 1010.8
20200402234557 70 203 6.0 18.0 0.00 0.00 0.00 45 1010.7
20200402234043 71 155 4.0 15.0 0.00 0.00 0.00 46 1010.7
20200402233549 71 151 5.0 17.0 0.00 0.00 0.00 46 1010.7
20200402233050 72 128 7.0 17.0 0.00 0.00 0.00 42 1010.7
20200402232546 72 146 5.0 14.0 0.00 0.00 0.00 43 1010.5
20200402232044 72 113 7.0 18.0 0.00 0.00 0.00 43 1010.6
20200402231555 71 149 7.0 18.0 0.00 0.00 0.00 46 1010.6
20200402231043 70 173 7.0 16.0 0.00 0.00 0.00 45 1010.5
20200402230546 70 174 6.0 14.0 0.00 0.00 0.00 45 1010.7
20200402230119 70 150 6.0 14.0 0.00 0.00 0.00 46 1010.8
20200402225607 71 143 7.0 15.0 0.00 0.00 0.00 44 1010.8
20200402225053 71 205 6.0 17.0 0.00 0.00 0.00 44 1010.7
20200402224619 71 208 8.0 17.0 0.00 0.00 0.00 44 1010.8
20200402224049 71 177 10.0 17.0 0.00 0.00 0.00 43 1010.6
20200402223545 71 213 6.0 20.0 0.00 0.00 0.00 43 1010.8
20200402223055 73 180 11.0 20.0 0.00 0.00 0.00 41 1010.8
20200402222544 73 159 8.0 18.0 0.00 0.00 0.00 42 1010.8
20200402222044 72 200 9.0 23.0 0.00 0.00 0.00 42 1010.9
20200402221604 72 192 7.0 23.0 0.00 0.00 0.00 42 1010.9
20200402221045 72 164 8.0 18.0 0.00 0.00 0.00 42 1010.9
20200402220549 73 171 5.0 12.0 0.00 0.00 0.00 42 1010.8
20200402220058 73 171 6.0 15.0 0.00 0.00 0.00 44 1011.0
20200402215545 71 186 7.0 16.0 0.00 0.00 0.00 43 1011.0
20200402215043 71 218 8.0 16.0 0.00 0.00 0.00 42 1011.0
20200402214607 70 194 8.0 15.0 0.00 0.00 0.00 43 1011.0
20200402214057 70 220 8.0 19.0 0.00 0.00 0.00 43 1010.9
20200402213550 71 221 7.0 19.0 0.00 0.00 0.00 44 1010.6
20200402213142 71 197 7.0 21.0 0.00 0.00 0.00 44 1010.3
20200402212548 71 203 11.0 21.0 0.00 0.00 0.00 45 1010.2
20200402212049 71 203 9.0 20.0 0.00 0.00 0.00 42 1010.1
20200402211703 72 202 5.0 14.0 0.00 0.00 0.00 44 1010.2
20200402211049 72 193 4.0 13.0 0.00 0.00 0.00 44 1010.2
20200402210612 73 208 6.0 17.0 0.00 0.00 0.00 41 1010.3
20200402210131 73 200 6.0 17.0 0.00 0.00 0.00 40 1010.2
20200402205545 71 107 6.0 22.0 0.00 0.00 0.00 42 1010.1
20200402205050 70 169 11.0 22.0 0.00 0.00 0.00 41 1010.2
20200402204717 70 167 10.0 21.0 0.00 0.00 0.00 41 1010.3
20200402204048 71 203 10.0 20.0 0.00 0.00 0.00 42 1010.3
20200402203607 72 186 11.0 19.0 0.00 0.00 0.00 38 1010.1
20200402203110 72 153 9.0 22.0 0.00 0.00 0.00 40 1010.1
20200402202548 73 150 7.0 24.0 0.00 0.00 0.00 38 1010.2
20200402202050 73 184 9.0 24.0 0.00 0.00 0.00 40 1010.4
20200402201558 73 180 9.0 18.0 0.00 0.00 0.00 37 1010.5
20200402201056 73 213 9.0 18.0 0.00 0.00 0.00 37 1010.6
20200402200552 73 177 7.0 20.0 0.00 0.00 0.00 38 1010.8
20200402200246 72 175 9.0 20.0 0.00 0.00 0.00 37 1011.0
20200402195545 72 155 5.0 20.0 0.00 0.00 0.00 40 1011.1
20200402195043 72 179 12.0 20.0 0.00 0.00 0.00 37 1011.3
20200402194609 73 171 9.0 19.0 0.00 0.00 0.00 36 1011.2
20200402194044 74 126 10.0 20.0 0.00 0.00 0.00 35 1011.3
20200402193545 75 137 10.0 24.0 0.00 0.00 0.00 34 1011.5
20200402193107 75 165 14.0 24.0 0.00 0.00 0.00 34 1011.6
20200402192558 76 224 13.0 24.0 0.00 0.00 0.00 34 1011.4
20200402192047 76 178 13.0 24.0 0.00 0.00 0.00 32 1011.5
20200402191601 76 134 11.0 25.0 0.00 0.00 0.00 34 1011.5
20200402191055 76 167 9.0 25.0 0.00 0.00 0.00 34 1011.6
20200402190555 77 182 9.0 26.0 0.00 0.00 0.00 34 1011.8
20200402190118 76 197 9.0 26.0 0.00 0.00 0.00 35 1011.8
20200402185543 76 124 12.0 21.0 0.00 0.00 0.00 34 1011.9
20200402185053 76 145 9.0 24.0 0.00 0.00 0.00 35 1011.9
20200402184733 74 149 14.0 24.0 0.00 0.00 0.00 36 1012.1
20200402184047 76 200 9.0 22.0 0.00 0.00 0.00 35 1012.1
20200402183551 75 140 10.0 24.0 0.00 0.00 0.00 36 1012.3
20200402183054 74 181 13.0 28.0 0.00 0.00 0.00 36 1012.3
20200402182545 75 126 13.0 29.0 0.00 0.00 0.00 35 1012.3
20200402182047 75 192 12.0 29.0 0.00 0.00 0.00 36 1012.4
20200402181631 74 185 11.0 29.0 0.00 0.00 0.00 37 1012.3
20200402181052 74 175 15.0 24.0 0.00 0.00 0.00 36 1012.4
20200402180545 75 108 11.0 23.0 0.00 0.00 0.00 35 1012.5
20200402180053 74 168 12.0 29.0 0.00 0.00 0.00 39 1012.6
20200402175546 74 136 12.0 29.0 0.00 0.00 0.00 38 1012.7
20200402175119 74 248 11.0 25.0 0.00 0.00 0.00 36 1012.8
20200402174638 74 192 7.0 21.0 0.00 0.00 0.00 38 1012.9
20200402174055 74 121 10.0 21.0 0.00 0.00 0.00 41 1012.9
20200402173549 73 142 9.0 22.0 0.00 0.00 0.00 41 1012.8
20200402173149 73 207 8.0 22.0 0.00 0.00 0.00 41 1013.0
20200402172541 73 176 11.0 25.0 0.00 0.00 0.00 41 1013.2
20200402172041 73 151 11.0 25.0 0.00 0.00 0.00 39 1013.1
20200402171611 74 132 6.0 14.0 0.00 0.00 0.00 43 1013.1
20200402171045 72 162 5.0 17.0 0.00 0.00 0.00 45 1013.2
20200402170552 71 180 4.0 18.0 0.00 0.00 0.00 45 1013.3
20200402170124 68 167 7.0 18.0 0.00 0.00 0.00 49 1013.3
20200402165553 69 149 6.0 15.0 0.00 0.00 0.00 47 1013.2
20200402165051 71 120 5.0 12.0 0.00 0.00 0.00 48 1013.3
20200402164606 71 163 4.0 16.0 0.00 0.00 0.00 47 1013.3
20200402164045 72 148 7.0 22.0 0.00 0.00 0.00 48 1013.4
20200402163545 71 179 3.0 22.0 0.00 0.00 0.00 50 1013.4
20200402163112 71 119 8.0 19.0 0.00 0.00 0.00 45 1013.4
20200402162543 69 145 5.0 19.0 0.00 0.00 0.00 53 1013.5
20200402162041 70 192 6.0 16.0 0.00 0.00 0.00 45 1013.4
20200402161720 69 101 2.0 12.0 0.00 0.00 0.00 48 1013.3
20200402161048 70 96 3.0 16.0 0.00 0.00 0.00 49 1013.3
20200402160545 71 96 3.0 19.0 0.00 0.00 0.00 52 1013.1
20200402160204 69 137 5.0 19.0 0.00 0.00 0.00 50 1013.4
20200402155547 68 130 4.0 22.0 0.00 0.00 0.00 50 1013.5
20200402155046 67 196 11.0 22.0 0.00 0.00 0.00 51 1013.5
20200402154623 68 158 6.0 15.0 0.00 0.00 0.00 51 1013.6
20200402154044 68 160 4.0 15.0 0.00 0.00 0.00 51 1013.5
20200402153544 67 132 4.0 15.0 0.00 0.00 0.00 53 1013.7
20200402153104 67 107 5.0 16.0 0.00 0.00 0.00 55 1013.5
20200402152544 66 111 4.0 16.0 0.00 0.00 0.00 55 1013.7
20200402152050 66 139 5.0 14.0 0.00 0.00 0.00 53 1013.7
20200402151621 65 158 5.0 14.0 0.00 0.00 0.00 55 1013.8
20200402151101 65 130 6.0 16.0 0.00 0.00 0.00 56 1013.8
20200402150544 65 107 5.0 19.0 0.00 0.00 0.00 57 1013.8
20200402150122 64 117 5.0 19.0 0.00 0.00 0.00 57 1014.0
20200402145553 64 123 4.0 14.0 0.00 0.00 0.00 58 1014.3
20200402145053 64 156 4.0 14.0 0.00 0.00 0.00 58 1014.4
20200402144634 63 119 3.0 11.0 0.00 0.00 0.00 60 1014.5
20200402144052 63 159 2.0 10.0 0.00 0.00 0.00 61 1014.6
20200402143543 62 132 5.0 9.0 0.00 0.00 0.00 60 1014.6
20200402143050 62 186 3.0 13.0 0.00 0.00 0.00 61 1014.7
20200402142544 61 149 5.0 13.0 0.00 0.00 0.00 61 1014.8
20200402142042 61 115 3.0 11.0 0.00 0.00 0.00 64 1014.9
20200402141608 61 96 1.0 9.0 0.00 0.00 0.00 64 1014.9
20200402141045 60 165 3.0 9.0 0.00 0.00 0.00 65 1014.8
20200402140545 60 149 3.0 9.0 0.00 0.00 0.00 65 1014.9
20200402140107 60 111 2.0 10.0 0.00 0.00 0.00 68 1014.9
20200402135541 59 0 2.0 10.0 0.00 0.00 0.00 67 1014.9
20200402135046 59 87 2.0 8.0 0.00 0.00 0.00 69 1014.8
20200402134647 59 140 3.0 11.0 0.00 0.00 0.00 67 1014.9
20200402134052 58 88 3.0 12.0 0.00 0.00 0.00 67 1014.9
20200402133545 58 103 4.0 12.0 0.00 0.00 0.00 70 1014.6
20200402133128 58 74 2.0 8.0 0.00 0.00 0.00 69 1014.8
20200402132554 58 122 2.0 7.0 0.00 0.00 0.00 72 1014.7
20200402132042 57 94 1.0 5.0 0.00 0.00 0.00 72 1014.7
20200402131640 57 92 2.0 5.0 0.00 0.00 0.00 72 1014.7
20200402131043 56 121 2.0 4.0 0.00 0.00 0.00 74 1014.6
20200402130543 55 92 2.0 4.0 0.00 0.00 0.00 76 1014.6
20200402130106 55 103 1.0 4.0 0.00 0.00 0.00 77 1014.8
20200402125545 55 103 2.0 6.0 0.00 0.00 0.00 77 1014.7
20200402125056 55 102 2.0 7.0 0.00 0.00 0.00 77 1014.6
20200402124615 55 113 2.0 7.0 0.00 0.00 0.00 76 1014.5
20200402124045 55 90 1.0 6.0 0.00 0.00 0.00 76 1014.6
20200402123545 55 98 2.0 6.0 0.00 0.00 0.00 75 1014.4
20200402123151 55 77 2.0 7.0 0.00 0.00 0.00 74 1014.4
20200402122545 55 109 1.0 7.0 0.00 0.00 0.00 74 1014.5
20200402122108 55 84 1.0 4.0 0.00 0.00 0.00 74 1014.5
20200402121605 55 96 1.0 3.0 0.00 0.00 0.00 74 1014.3
20200402121042 55 111 1.0 4.0 0.00 0.00 0.00 74 1014.1
20200402120602 55 117 1.0 8.0 0.00 0.00 0.00 75 1013.8
20200402120152 55 109 1.0 8.0 0.00 0.00 0.00 75 1013.8
20200402115606 55 75 1.0 7.0 0.00 0.00 0.00 75 1013.8
20200402115107 55 112 2.0 11.0 0.00 0.00 0.00 74 1013.8
20200402114553 55 119 4.0 11.0 0.00 0.00 0.00 74 1013.8
20200402114041 55 104 2.0 9.0 0.00 0.00 0.00 75 1013.8
20200402113544 55 97 3.0 9.0 0.00 0.00 0.00 74 1013.8
20200402113114 55 105 2.0 9.0 0.00 0.00 0.00 74 1013.7
20200402112544 55 87 2.0 7.0 0.00 0.00 0.00 76 1013.9
20200402112044 56 0 1.0 7.0 0.00 0.00 0.00 75 1013.9
20200402111615 55 85 2.0 4.0 0.00 0.00 0.00 75 1013.8
20200402111044 56 99 2.0 4.0 0.00 0.00 0.00 75 1013.9
20200402110544 56 95 2.0 4.0 0.00 0.00 0.00 73 1013.9
20200402110109 56 88 1.0 5.0 0.00 0.00 0.00 74 1013.8
20200402105546 56 104 3.0 5.0 0.00 0.00 0.00 75 1013.7
20200402105042 55 74 2.0 5.0 0.00 0.00 0.00 75 1013.6
20200402104547 55 112 2.0 6.0 0.00 0.00 0.00 76 1013.6
20200402104044 55 77 2.0 6.0 0.00 0.00 0.00 77 1013.4
20200402103544 55 101 1.0 4.0 0.00 0.00 0.00 76 1013.6
20200402103227 55 103 1.0 4.0 0.00 0.00 0.00 76 1013.6
20200402102545 55 102 1.0 3.0 0.00 0.00 0.00 77 1013.5
20200402102043 55 109 2.0 3.0 0.00 0.00 0.00 76 1013.6
20200402101641 55 80 1.0 2.0 0.00 0.00 0.00 76 1013.7
20200402101041 55 79 0.0 2.0 0.00 0.00 0.00 78 1013.6
20200402100544 55 78 0.0 2.0 0.00 0.00 0.00 76 1013.6
20200402100126 55 0 0.0 3.0 0.00 0.00 0.00 75 1013.6
20200402095601 55 78 1.0 3.0 0.00 0.00 0.00 76 1013.6
20200402095119 55 78 1.0 3.0 0.00 0.00 0.00 75 1013.6
20200402094608 55 91 1.0 3.0 0.00 0.00 0.00 77 1013.4
20200402094044 55 92 1.0 3.0 0.00 0.00 0.00 76 1013.5
20200402093544 55 100 2.0 4.0 0.00 0.00 0.00 76 1013.3
20200402093118 55 102 2.0 4.0 0.00 0.00 0.00 75 1013.5
20200402092556 55 89 1.0 3.0 0.00 0.00 0.00 74 1013.7
20200402091621 55 90 2.0 6.0 0.00 0.00 0.00 74 1013.8
20200402091044 56 89 2.0 7.0 0.00 0.00 0.00 73 1013.9
20200402090542 56 84 2.0 7.0 0.00 0.00 0.00 73 1014.1
20200402090107 55 74 2.0 5.0 0.00 0.00 0.00 72 1014.1